Probability
0 0 0 0 0 0 0 0 0 0 0 0 0 0 0 0 0 0 0 0 0 0 0 0 0 0 0 0 0 0 0 0 0 0 0 0 0 0 0 0 0 0 0
0 0 0 0 0 0 0 0 0 0 0 0 0 0 0 0 0 0 0 0 0 0 0 0 0 0 0 0 0 0 0 0 0 0 0 0 0 0 0 0 0 0 0
0 0 0 0 0 0 0 0 0 0 0 0 0 0 0 0 0 0 0 0 0 0 0 0 0 0 0 0 0 0 0 0 0 0 0 0 0 0 0 0 0 0 0
0 0 0 0 0 0 0 0 0 0 0 0 0 0 0 0 0 0 0 0 0 0 0 0 0 0 0 0 0 0 0 0 0 0 0 0 0 0 0 0 0 0 0
0 0 0 0 0 0 0 0 0 0 0 0 0 0 0 0 0 0 0 0 0 0 0 0 0 0 0 0 0 0 0 0 0 0 0 0 0 0 0 0 0 0 0
0 0 0 0 0 0 0 0 0 0 0 0 0 0 0 0 0 0 0 0 0 0 0 0 0 0 0 0 0 0 0 0 0 0 0 0 0 0 0 0 0 0 0
0 0 0 0 0 0 0 0 0 0 0 0 0 0 0 0 0 0 0 0 0 0 0 0 0 0 0 0 0 0 0 0 0 0 0 0 0 0 0 0 0 0 0
0 0 0 0 0 0 0 0 0 0 0 0 0 0 0 0 0 0 0 0 0 0 0 0 0 0 0 0 0 0 0 0 0 0 0 0 0 0 0 0 0 0 0
0 0 0 0 0 0 0 0 0 0 0 0 0 0 0 0 0 0 0 0 0 0 0 0 0 0 0 0 0 0 0 0 0 0 0 0 0 0 0 0 0 0 0
0 0 0 0 0 0 0 0 0 0 0 0 0 0 0 0 0 0 0 0 0 0 0 0 0 0 0 0 0 0 0 0 0 0 0 0 0 0 0 0 0 0 0
0 0 0 0 0 0 0 0 0 0 0 0 0 0 0 0 0 0 0 0 0 0 0 0 0 0 0 0 0 0 0 0 0 0 0 0 0 0 0 0 0 0 0
0 0 0 0 0 0 0 0 0 0 0 0 0 0 0 0 0 0 0 0 0 0 0 0 0 0 0 0 0 0 0 0 0 0 0 0 0 0 0 0 0 0 0
0 0 0 0 0 0 0 0 0 0 0 0 0 0 0 0 0 0 0 0 0 0 0 0 0 0 0 0 0 0 0 0 0 0 0 0 0 0 0 0 0 0 0
0 0 0 0 0 0 0 0 0 0 0 0 0 0 0 0 0 0 0 0 0 0 0 0 0 0 0 0 0 0 0 0 0 0 0 0 0 0 0 0 0 0 0
0 0 0 0 0 0 0 0 0 0 0 0 0 0 0 0 0 0 0 0 0 0 0 0 0 0 0 0 0 0 0 0 0 0 0 0 0 0 0 0 0 0 0
0 0 0 0 0 0 0 0 0 0 0 0 0 0 0 0 0 0 0 0 0 0 0 0 0 0 0 0 0 0 0 0 0 0 0 0 0 0 0 0 0 0 0
0 0 0 0 0 0 0 0 0 0 0 0 0 0 0 0 0 0 0 0 0 0 0 0 0 0 0 3 0 0 0 0 0 0 0 0 0 0 0 0 0 0 0
0 0 0 0 0 0 0 0 0 0 0 0 0 0 0 0 0 0 0 0 0 0 0 0 0 0 0 0 0 0 0 0 0 0 0 0 0 0 0 0 0 0 0
0 0 0 0 0 0 0 0 0 0 0 0 0 0 0 0 0 0 0 0 0 0 0 0 0 0 0 0 0 0 0 0 0 0 0 0 0 0 0 0 0 0 0
0 0 0 0 0 0 0 0 0 0 0 0 0 0 0 0 0 0 0 0 0 0 0 0 0 0 0 0 0 0 0 0 0 0 0 0 0 0 0 0 0 0 0
0 0 0 0 0 0 0 0 0 0 0 0 0 0 0 0 0 0 0 0 0 0 0 0 0 0 0 0 0 0 0 0 0 0 0 0 0 0 0 0 0 0 0
0 0 0 0 0 0 0 0 0 0 0 0 0 0 0 0 0 0 0 0 0 0 0 0 0 0 0 0 0 0 0 0 0 0 0 0 0 0 0 0 0 0 0
0 0 0 0 0 0 0 0 0 0 0 0 0 0 0 0 0 0 0 0 0 0 0 0 0 0 0 0 0 0 0 0 0 0 0 0 0 0 0 0 0 0 0
0 0 0 0 0 0 0 0 0 0 0 0 0 0 0 0 0 0 0 0 0 0 0 0 0 0 0 0 0 0 0 0 0 0 0 0 0 0 0 0 0 0 0
0 0 0 0 0 0 0 0 0 0 0 0 0 0 0 0 0 0 0 0 0 0 0 0 0 0 0 0 0 0 0 0 0 0 0 0 0 0 0 0 0 0 0
0 0 0 0 0 0 0 0 0 0 0 0 0 0 0 0 0 0 0 0 0 0 0 0 0 0 0 0 0 0 0 0 0 0 0 0 0 0 0 0 0 0 0
Height
5849 5846 5842 5838 5834 5830 5826 5821 5817 5812 5808 5803 5799 5795 5791 5788 5785 5782 5780 5778 5777 5777 5777 5778 5779 5780 5782 5785 5788 5791 5795 5799 5802 5806 5810 5814 5817 5821 5825 5828 5831 5835 5838
5848 5845 5841 5838 5834 5830 5825 5821 5816 5811 5806 5802 5797 5793 5789 5785 5781 5778 5776 5774 5772 5771 5771 5771 5772 5774 5775 5778 5781 5784 5787 5791 5795 5799 5803 5807 5811 5814 5818 5821 5825 5828 5832
5847 5844 5841 5837 5834 5829 5825 5820 5815 5810 5805 5800 5796 5791 5786 5782 5779 5775 5772 5770 5768 5766 5766 5766 5766 5767 5769 5771 5774 5777 5780 5784 5788 5792 5796 5800 5803 5807 5811 5814 5818 5822 5826
5847 5845 5841 5838 5834 5830 5825 5820 5815 5810 5804 5799 5794 5789 5785 5780 5777 5773 5769 5766 5764 5762 5761 5761 5761 5762 5763 5765 5767 5770 5774 5777 5780 5784 5788 5792 5796 5800 5804 5808 5812 5816 5819
5848 5845 5841 5838 5834 5830 5825 5820 5815 5809 5804 5799 5794 5788 5784 5779 5775 5771 5767 5763 5760 5758 5757 5756 5756 5757 5758 5759 5762 5764 5767 5770 5774 5777 5781 5784 5788 5792 5797 5801 5805 5809 5813
5848 5845 5841 5838 5834 5830 5825 5820 5815 5809 5804 5798 5793 5788 5783 5778 5773 5769 5765 5761 5758 5755 5753 5752 5752 5752 5753 5754 5756 5758 5761 5764 5767 5770 5774 5777 5781 5785 5789 5793 5797 5801 5806
5848 5845 5842 5838 5834 5830 5825 5820 5815 5810 5804 5799 5793 5788 5783 5777 5772 5768 5763 5759 5756 5753 5750 5749 5748 5748 5749 5750 5751 5753 5755 5758 5761 5764 5767 5770 5774 5778 5782 5786 5790 5794 5798
5847 5845 5842 5838 5835 5830 5826 5821 5816 5810 5805 5799 5794 5788 5783 5777 5772 5768 5763 5758 5754 5751 5748 5746 5745 5745 5745 5746 5747 5749 5750 5753 5755 5758 5761 5764 5767 5770 5774 5779 5782 5786 5790
5847 5845 5842 5838 5834 5830 5826 5821 5816 5811 5806 5800 5794 5789 5783 5778 5773 5768 5763 5758 5754 5750 5747 5745 5743 5742 5742 5742 5743 5745 5746 5748 5749 5752 5754 5757 5760 5764 5767 5771 5775 5779 5783
5847 5844 5841 5838 5834 5830 5826 5822 5817 5812 5806 5801 5795 5790 5784 5779 5774 5769 5764 5759 5755 5751 5747 5744 5742 5741 5740 5740 5740 5741 5742 5743 5745 5746 5749 5751 5754 5757 5760 5763 5767 5771 5775
5846 5844 5841 5838 5834 5830 5826 5822 5817 5812 5807 5802 5796 5791 5785 5780 5775 5770 5765 5761 5756 5751 5747 5744 5741 5740 5738 5738 5737 5738 5738 5739 5740 5741 5743 5745 5748 5750 5753 5756 5759 5763 5767
5845 5843 5840 5837 5834 5830 5826 5822 5817 5812 5807 5802 5797 5792 5786 5781 5777 5772 5767 5762 5758 5753 5749 5745 5742 5739 5738 5736 5736 5735 5735 5735 5736 5737 5738 5740 5741 5744 5746 5749 5752 5756 5760
5844 5842 5839 5836 5833 5829 5825 5821 5817 5813 5808 5803 5798 5793 5788 5783 5778 5773 5768 5764 5759 5755 5750 5747 5743 5740 5738 5736 5735 5733 5733 5732 5733 5733 5734 5734 5736 5738 5741 5743 5746 5749 5753
5843 5841 5838 5835 5832 5828 5825 5821 5817 5812 5808 5803 5798 5794 5789 5784 5779 5774 5770 5765 5760 5756 5752 5748 5744 5741 5738 5736 5734 5732 5731 5730 5730 5730 5730 5730 5731 5733 5735 5738 5741 5743 5747
5842 5840 5837 5834 5831 5827 5824 5820 5816 5812 5808 5803 5799 5794 5790 5785 5780 5776 5771 5766 5762 5757 5753 5749 5745 5742 5739 5736 5733 5732 5730 5729 5729 5728 5727 5728 5728 5730 5732 5734 5736 5738 5741
5840 5838 5835 5833 5830 5826 5823 5819 5815 5811 5807 5803 5799 5794 5790 5785 5781 5776 5772 5768 5763 5759 5755 5750 5746 5743 5739 5736 5733 5731 5730 5729 5728 5727 5726 5726 5726 5727 5728 5730 5731 5734 5736
5838 5836 5834 5831 5828 5825 5821 5818 5814 5810 5806 5802 5798 5794 5790 5785 5781 5777 5773 5768 5764 5760 5756 5752 5748 5744 5740 5737 5734 5732 5730 5728 5727 5726 5725 5724 5724 5725 5725 5727 5728 5729 5731
5836 5834 5831 5829 5826 5823 5819 5816 5813 5809 5805 5801 5798 5794 5790 5785 5781 5777 5773 5769 5765 5761 5757 5753 5749 5745 5741 5738 5735 5733 5730 5728 5727 5725 5724 5723 5723 5723 5723 5724 5725 5726 5727
5833 5831 5828 5826 5823 5820 5817 5814 5811 5807 5804 5800 5796 5793 5789 5785 5781 5777 5773 5769 5765 5761 5757 5753 5750 5746 5742 5739 5736 5734 5731 5729 5727 5725 5724 5723 5722 5721 5721 5721 5722 5722 5723
5829 5827 5825 5823 5820 5817 5814 5811 5808 5805 5801 5798 5795 5791 5787 5784 5780 5776 5772 5768 5764 5761 5757 5753 5750 5747 5743 5740 5737 5734 5732 5729 5727 5725 5723 5722 5721 5720 5719 5719 5719 5719 5719
5825 5823 5821 5819 5816 5814 5811 5808 5805 5802 5799 5796 5792 5789 5785 5782 5778 5775 5771 5767 5763 5760 5756 5753 5750 5746 5743 5740 5737 5735 5732 5730 5727 5725 5723 5721 5720 5718 5717 5717 5716 5716 5716
5821 5819 5817 5815 5813 5810 5807 5804 5802 5799 5796 5792 5789 5786 5783 5779 5776 5772 5769 5765 5762 5759 5755 5752 5749 5746 5743 5740 5737 5735 5732 5730 5727 5725 5723 5721 5719 5717 5716 5715 5714 5714 5714
5816 5814 5812 5810 5808 5806 5803 5800 5797 5794 5792 5789 5785 5782 5779 5776 5773 5769 5766 5763 5760 5757 5754 5750 5747 5744 5742 5739 5736 5734 5731 5729 5726 5724 5722 5720 5718 5716 5714 5713 5712 5712 5712
5810 5809 5807 5805 5803 5801 5798 5796 5793 5790 5787 5784 5781 5778 5775 5772 5769 5766 5763 5760 5757 5754 5751 5748 5746 5743 5740 5737 5735 5732 5729 5727 5725 5723 5720 5718 5716 5714 5713 5711 5710 5710 5709
5804 5803 5801 5799 5797 5795 5793 5791 5788 5785 5782 5779 5776 5773 5770 5767 5764 5761 5759 5756 5753 5750 5748 5745 5743 5740 5737 5734 5732 5729 5727 5724 5722 5720 5718 5716 5714 5712 5711 5709 5708 5707 5706
5797 5796 5795 5793 5791 5789 5787 5785 5782 5780 5777 5774 5771 5768 5765 5762 5760 5757 5754 5751 5748 5746 5743 5741 5738 5736 5734 5731 5728 5726 5724 5721 5719 5717 5715 5713 5711 5709 5708 5706 5705 5703 5702
Wind_Speed
15 17 17 18 19 19 20 21 21 21 21 21 20 19 18 17 16 16 16 17 17 18 20 22 24 26 28 30 31 32 33 33 32 32 32 32 32 31 29 30 29 29 28
16 17 18 18 19 20 21 22 22 22 21 20 20 19 18 17 16 16 15 15 15 16 17 19 21 23 25 27 29 30 32 32 32 32 32 32 32 32 31 31 31 32 31
15 16 17 18 19 20 21 22 22 22 21 21 20 20 19 18 17 17 16 15 14 14 15 16 18 20 22 24 27 28 30 30 31 32 31 32 32 32 33 32 31 32 32
14 15 16 17 19 20 21 22 23 23 22 22 21 21 20 19 18 17 17 15 14 12 13 14 15 18 20 22 24 26 27 28 29 31 32 32 32 32 33 33 32 32 33
13 15 16 17 19 20 21 22 23 23 23 22 22 21 20 20 19 18 17 16 14 12 12 12 13 14 17 19 22 24 26 28 29 30 31 31 32 32 33 33 34 33 33
12 14 16 17 18 20 21 23 23 24 24 23 23 22 21 21 20 19 18 16 15 13 11 11 12 12 14 16 19 21 23 25 28 29 30 31 31 32 32 33 34 33 33
12 13 15 17 18 19 21 23 23 24 24 24 23 23 22 22 21 20 19 17 16 14 12 10 10 10 11 13 15 18 20 23 25 28 28 29 30 31 32 33 34 35 35
11 13 14 16 18 19 21 22 23 24 24 24 24 23 23 22 22 21 20 18 17 15 12 10 9 8 10 11 14 15 18 21 23 25 26 28 29 30 32 33 34 35 35
11 12 14 15 17 19 20 21 23 23 24 24 24 24 23 23 22 21 21 20 18 16 14 11 9 7 7 9 11 13 16 18 21 23 25 26 28 29 31 32 34 34 35
10 12 13 15 16 18 19 20 22 23 23 24 24 24 24 23 22 21 21 21 19 18 16 13 10 8 6 6 8 10 12 15 18 20 22 24 26 28 29 31 33 34 34
9 11 13 14 16 17 19 20 21 22 23 24 24 24 23 22 22 22 21 21 20 19 17 15 12 9 7 6 7 8 9 12 15 17 19 21 23 24 26 28 31 33 34
9 11 13 14 16 17 18 19 20 22 23 23 23 24 23 22 22 22 21 21 20 19 18 16 14 12 9 7 7 7 7 9 11 13 16 18 21 22 24 26 28 30 31
9 11 13 14 16 17 18 19 20 21 22 22 23 23 23 23 22 22 22 21 21 20 18 17 15 14 11 8 7 6 6 7 8 10 13 15 18 19 21 23 25 27 29
9 11 12 14 15 17 18 19 19 20 21 22 22 22 22 22 22 22 21 21 21 20 19 17 16 14 13 10 8 7 5 5 6 7 9 11 14 16 18 20 21 24 26
9 11 12 14 15 17 18 18 19 20 21 21 21 21 22 22 22 22 21 21 21 21 20 19 17 15 13 11 9 8 6 5 4 5 6 9 12 14 16 18 19 22 24
10 11 13 14 15 17 17 18 19 20 20 21 21 21 21 21 21 21 21 21 21 21 20 20 18 17 15 14 11 10 8 6 5 5 5 7 9 12 14 15 17 20 22
11 12 13 14 15 17 18 18 19 19 20 20 21 21 21 21 21 21 21 21 21 20 20 20 19 18 16 14 12 11 10 7 6 5 5 6 8 10 11 13 15 17 19
12 13 14 15 16 17 18 18 19 19 20 20 21 21 21 21 21 21 20 20 20 20 19 19 18 18 17 15 14 12 11 9 7 6 5 5 6 8 10 12 13 15 17
13 14 15 16 17 17 18 19 19 20 20 20 21 21 21 21 21 21 20 20 20 20 19 18 18 17 17 16 14 13 12 10 9 8 7 5 5 6 8 10 12 14 17
15 15 16 16 17 18 18 19 20 20 20 20 21 21 20 20 21 21 21 20 20 19 19 18 18 17 17 16 15 14 13 12 10 9 8 7 6 6 7 9 10 12 14
16 16 16 17 18 18 19 20 21 21 21 21 21 21 21 21 21 21 21 21 20 19 19 18 18 17 16 16 15 14 13 12 11 10 9 8 7 7 7 7 9 10 12
17 17 17 18 19 19 20 21 21 22 22 22 22 22 22 22 22 21 21 21 20 20 20 19 18 17 17 16 15 14 14 13 12 11 11 10 9 8 8 7 8 9 10
18 18 19 19 20 21 21 22 23 23 23 23 23 23 23 23 22 22 21 21 21 20 20 19 19 18 17 16 15 15 14 13 13 12 12 11 11 10 9 9 9 10 11
19 20 20 21 21 22 22 23 24 24 24 24 24 24 24 23 23 22 22 22 21 21 20 20 19 19 18 18 17 16 15 15 14 14 13 12 12 11 10 10 10 10 11
21 22 22 23 23 23 24 25 25 25 25 26 26 25 25 24 24 23 23 23 23 22 21 21 20 19 19 19 18 18 17 17 16 16 15 15 14 13 12 12 12 12 12
24 24 24 24 25 25 26 26 26 26 27 27 27 26 26 25 25 24 24 24 24 23 23 22 21 20 20 19 19 19 19 19 18 18 18 17 17 16 15 15 14 14 14
Wind_Direction
5 4 4 3 2 359 356 353 350 347 346 345 343 339 335 330 322 312 302 292 283 273 264 258 253 249 246 242 240 239 238 237 237 237 236 234 233 231 230 231 229 228 227
7 6 6 6 4 2 0 358 355 353 351 350 349 346 343 340 334 326 315 303 292 281 270 261 255 251 247 242 239 237 238 238 237 238 236 234 233 231 229 231 230 229 227
8 7 7 6 5 3 3 2 360 358 356 354 352 349 347 344 340 335 329 318 303 289 277 267 258 253 249 244 239 237 236 236 235 235 235 234 232 230 229 230 230 229 228
8 8 7 6 4 4 4 2 1 1 360 358 356 354 352 348 344 340 335 329 318 300 284 272 264 255 250 245 241 239 236 236 235 234 233 233 232 230 230 230 228 228 228
10 9 8 6 6 6 5 4 3 3 2 1 0 359 356 353 349 345 342 337 328 315 297 280 270 260 252 246 241 239 237 236 234 233 232 232 232 231 230 230 228 228 228
11 10 9 8 7 7 5 5 5 5 4 3 2 1 359 357 355 352 349 346 339 328 314 295 277 266 255 247 242 239 238 235 234 233 233 233 232 231 230 229 229 228 228
10 8 7 7 7 6 6 6 6 6 6 6 5 4 3 2 360 357 354 351 347 339 327 311 290 272 260 251 244 241 239 236 234 233 233 233 231 232 232 231 231 231 228
7 5 5 5 6 6 6 7 7 7 8 8 7 7 6 5 5 4 2 0 357 351 342 327 307 284 267 256 249 245 242 239 237 235 235 234 233 233 233 232 232 232 231
4 3 3 4 5 5 6 7 8 8 9 10 10 10 9 8 8 8 7 6 4 3 358 346 333 311 283 262 254 251 247 242 239 236 235 234 233 233 234 233 231 231 230
0 2 3 4 4 4 5 6 6 7 9 10 10 10 10 11 10 10 12 12 10 7 5 1 353 340 316 285 266 260 252 246 242 240 238 236 235 233 234 233 232 231 230
359 1 2 1 0 0 1 3 4 5 7 8 9 9 10 11 12 13 12 12 12 11 10 7 2 351 337 316 291 275 259 249 246 243 240 238 237 235 235 235 233 231 230
358 358 358 357 356 356 357 359 1 2 5 6 7 9 9 10 11 12 12 12 12 13 13 11 9 5 353 339 322 297 271 257 252 248 244 241 238 236 235 235 233 232 231
350 352 353 354 353 354 354 356 357 359 1 4 5 7 8 9 9 10 11 11 12 12 13 12 11 8 2 351 341 324 294 271 260 253 247 243 237 234 234 233 231 231 231
341 345 347 348 348 349 351 352 354 355 357 360 2 3 5 7 8 8 9 10 10 11 12 12 10 10 8 2 356 346 324 301 283 265 249 241 235 232 232 231 230 230 231
334 337 339 342 343 345 347 349 351 353 354 355 358 360 2 3 5 6 7 9 10 11 11 11 11 10 9 4 359 355 348 330 309 285 261 245 236 233 232 232 231 232 234
326 330 333 336 339 342 343 345 347 349 350 352 354 356 358 0 2 3 4 6 8 9 10 11 11 10 9 8 4 2 358 346 330 307 275 256 243 239 238 237 235 235 236
319 323 327 330 333 337 339 341 343 345 347 350 352 353 355 357 359 360 1 3 3 5 7 9 10 10 9 9 9 7 3 357 344 328 302 272 255 245 241 242 240 238 236
312 317 321 325 328 331 334 336 339 341 344 347 349 351 353 355 356 357 358 359 360 0 2 4 6 7 8 8 8 4 3 0 355 345 332 297 271 253 247 245 242 240 238
307 312 316 320 324 327 329 332 334 337 339 341 344 346 348 351 352 353 354 354 355 356 357 359 1 3 4 4 3 3 2 0 356 348 340 325 295 269 258 252 248 245 241
303 308 313 316 320 323 325 328 331 333 335 337 339 341 342 344 346 348 350 350 351 351 352 353 355 358 360 360 359 359 357 355 351 346 341 334 316 296 279 266 255 248 244
299 304 309 312 316 319 322 324 326 328 330 332 333 335 336 338 339 341 343 345 347 347 348 348 348 349 351 353 354 354 355 354 351 347 342 336 326 311 297 281 266 256 250
296 301 305 309 312 314 317 319 322 324 325 327 328 329 330 332 334 335 337 338 340 341 343 343 342 342 343 344 345 346 347 346 345 342 338 333 324 313 303 291 274 263 258
292 297 301 305 307 310 312 315 318 320 321 322 323 325 326 327 328 329 330 332 333 334 335 336 336 336 336 336 337 337 338 338 339 338 335 331 325 317 309 299 285 271 266
289 293 297 301 303 306 308 311 313 315 317 318 319 320 321 322 323 324 324 325 325 326 327 328 329 329 329 329 329 328 328 328 328 329 329 328 327 318 308 301 293 282 274
286 290 293 297 299 301 304 306 309 311 313 314 315 317 317 317 318 318 319 319 319 319 320 321 322 322 321 321 321 321 320 318 318 317 317 316 315 313 308 301 296 290 282
283 286 290 293 296 298 300 302 304 306 309 310 311 312 312 313 313 313 314 315 315 315 315 315 316 315 315 315 314 314 314 313 311 311 310 309 307 305 302 299 296 292 287